Location: Bern�tre
(50.1974°N, 2.0915°E)
Time: 05:28:42
(UTC+00:00)

Cosmos 1626 - Pass Details

Date: 18 September 2020
Orbit: 490 x 495 km, 82.5° (Epoch: 29 October)

Event Time Altitude Azimuth Distance (km) Brightness Sun altitude
Rises 20:12:20 0° 352° (N) 2,592 6.3 -21.3°
Reaches altitude 10° 20:14:29 10° 356° (N) 1,703 5.2 -21.6°
Enters shadow 20:17:25 48° 27° (NNE) 655 2.6 -22.0°
